Location: Unspecified
(0.0000°N, 0.0000°E)
Time: 23:31:56
(UTC+00:00)

NOSS 0 (C) - Visible Passes

Search period start: 14 November 2018 00:00
Search period end: 24 November 2018 00:00
Orbit: 978 x 989 km, 70.0° (Epoch: 07 September)

Date Brightness Start Highest point End Pass type
(mag) Time Alt. Az. Time Alt. Az. Time Alt. Az.
14 Nov 10.4 04:23:18 10° ENE 04:24:45 11° ENE 04:26:12 10° E visible
15 Nov 9.4 04:47:14 10° NNE 04:52:41 30° ENE 04:58:08 10° SE visible
16 Nov 7.8 05:14:11 10° N 05:20:33 75° ENE 05:26:57 10° SSE visible
16 Nov 10.0 18:23:36 10° WSW 18:28:04 20° WNW 18:32:33 10° NNW visible
17 Nov 10.0 03:57:48 10° NE 04:01:24 16° ENE 04:05:01 10° ESE visible
18 Nov 8.8 04:23:24 10° N 04:29:18 40° ENE 04:35:14 10° SE visible
19 Nov 7.5 04:50:47 10° NNW 04:57:10 82° WSW 05:03:35 10° SSE visible
20 Nov 9.6 03:33:21 10° NNE 03:38:02 21° ENE 03:42:44 10° ESE visible
20 Nov 8.3 05:19:25 10° NW 05:25:02 33° WSW 05:30:41 10° SSW visible
21 Nov 8.1 04:00:43 15° N 04:05:55 54° ENE 04:12:09 10° SSE visible
22 Nov 10.1 02:45:46 10° ENE 02:46:45 10° ENE 02:47:44 10° E visible
22 Nov 7.5 04:29:16 20° NNW 04:33:47 62° WSW 04:40:06 10° S visible
23 Nov 9.1 03:12:51 25° NE 03:14:41 29° ENE 03:20:05 10° SE visible
23 Nov 8.6 04:57:44 14° WNW 05:01:41 24° WSW 05:06:43 10° SSW visible
